Location: Les Salelles
(44.4192°N, 4.1044°E)
Time: 11:02:48
(UTC+00:00)

Cosmos 1937 Rocket - Pass Details

Date: 20 January 2021
Orbit: 746 x 780 km, 74.0° (Epoch: 28 February)

Event Time Altitude Azimuth Distance (km) Brightness Sun altitude
Rises 18:51:04 0° 184° (S) 3,235 6.9 -23.7°
Reaches altitude 10° 18:53:29 10° 179° (S) 2,317 6.0 -24.1°
Enters shadow 18:56:44 35° 158° (SSE) 1,235 4.4 -24.7°
